Salida, CO

2:34 AM MST on November 20, 2017 (GMT -0700)
Salida

Weather History for KANK - November, 2011

Change the Weather History Date:

Tuesday, November 22, 2011

  Actual Average (KGUC) Record (KGUC)
Temperature  
Mean Temperature 39 °F -  
Max Temperature 51 °F 35 °F 53 °F (2012)
Min Temperature 27 °F 11 °F 0 °F (2007)
Degree Days  
Heating Degree Days 26    
Moisture  
Dew Point 20 °F    
Average Humidity 48    
Maximum Humidity 74    
Minimum Humidity 28    
Precipitation  
Precipitation 0.00 in - - ()
Sea Level Pressure  
Sea Level Pressure 30.30 in    
Wind  
Wind Speed 7 mph (WSW)    
Max Wind Speed 20 mph    
Max Gust Speed 37 mph    
Visibility 10 miles    
Events      
Averages and records for this station are not official NWS values.
T = Trace of Precipitation, MM = Missing Value Source: NWS Daily Summary

Daily Weather History Graph

Daily Weather History Graph

Search for Another Location

Airport or City:

Trip Planner

Search our weather history database for the weather conditions in past years. The results will help you decide how hot, cold, wet, or windy it might be!

Date:

Astronomy

Nov. 22, 2011 Rise Set
Actual Time 6:53 AM MST 4:46 PM MST
Civil Twilight 6:24 AM MST 5:15 PM MST
Nautical Twilight 5:52 AM MST 5:48 PM MST
Astronomical Twilight 5:20 AM MST 6:19 PM MST
Moon 3:48 AM MST (11/22) 2:46 PM MST (11/22)
Length of Visible Light 10h 50m
Length of Day
9h 53m
Waning Crescent, 9% of the Moon is Illuminated
Nov 22
Waning Crescent
Nov 24
New
Dec 2
First Quarter
Dec 10
Full
Dec 17
Last Quarter

Hourly Weather History & Observations

Time (MST) Temp. Windchill Dew Point Humidity Pressure Visibility Wind Dir Wind Speed Gust Speed Precip Events Conditions
12:15 AM 34.0 °F 28.8 °F 22.3 °F 62% 30.24 in 10.0 mi NNW 5.8 mph - N/A   Clear
12:35 AM 33.3 °F - 22.1 °F 64% 30.24 in 10.0 mi Calm Calm - N/A   Clear
12:55 AM 32.2 °F 25.8 °F 21.9 °F 66% 30.24 in 10.0 mi North 6.9 mph - N/A   Clear
1:15 AM 32.2 °F 28.9 °F 21.6 °F 65% 30.24 in 10.0 mi NNW 3.5 mph - N/A   Clear
1:35 AM 32.0 °F - 22.1 °F 67% 30.25 in 10.0 mi Calm Calm - N/A   Clear
1:55 AM 31.1 °F - 21.6 °F 68% 30.25 in 10.0 mi Calm Calm - N/A   Clear
2:15 AM 28.8 °F - 20.7 °F 72% 30.25 in 10.0 mi Calm Calm - N/A   Clear
2:35 AM 30.4 °F 22.9 °F 21.6 °F 70% 30.25 in 10.0 mi North 8.1 mph - N/A   Clear
2:55 AM 30.2 °F 24.3 °F 21.7 °F 71% 30.25 in 10.0 mi North 5.8 mph - N/A   Clear
3:15 AM 31.5 °F 25.8 °F 21.7 °F 67% 30.25 in 10.0 mi NNW 5.8 mph - N/A   Scattered Clouds
3:35 AM 30.6 °F - 21.6 °F 69% 30.25 in 10.0 mi Calm Calm - N/A   Scattered Clouds
3:55 AM 29.3 °F - 21.2 °F 72% 30.26 in 10.0 mi Calm Calm - N/A   Clear
4:35 AM 29.1 °F 21.3 °F 21.2 °F 72% 30.25 in 10.0 mi North 8.1 mph - N/A   Clear
5:15 AM 29.7 °F - 21.2 °F 71% 30.27 in 10.0 mi Calm Calm - N/A   Clear
5:35 AM 27.7 °F - 20.5 °F 74% 30.27 in 10.0 mi Calm Calm - N/A   Clear
6:15 AM 28.2 °F 22.0 °F 19.8 °F 71% 30.27 in 10.0 mi North 5.8 mph - N/A   Clear
6:35 AM 29.5 °F 23.4 °F 20.7 °F 70% 30.27 in 10.0 mi SW 5.8 mph - N/A   Clear
6:55 AM 35.8 °F 31.9 °F 21.9 °F 57% 30.29 in 10.0 mi SSW 4.6 mph - N/A   Clear
7:15 AM 30.0 °F - 20.3 °F 67% 30.30 in 10.0 mi Calm Calm - N/A   Clear
7:55 AM 36.9 °F 32.2 °F 22.1 °F 55% 30.32 in 10.0 mi SSW 5.8 mph 19.6 mph N/A   Clear
8:15 AM 36.1 °F 31.4 °F 21.0 °F 54% 30.32 in 10.0 mi North 5.8 mph - N/A   Clear
8:35 AM 38.3 °F 31.9 °F 21.4 °F 51% 30.32 in 10.0 mi WSW 9.2 mph - N/A   Clear
8:55 AM 43.0 °F 36.8 °F 20.5 °F 41% 30.33 in 10.0 mi WSW 11.5 mph - N/A   Clear
9:15 AM 44.2 °F 38.0 °F 19.9 °F 38% 30.33 in 10.0 mi SW 12.7 mph 20.7 mph N/A   Clear
9:35 AM 45.1 °F 38.8 °F 19.8 °F 36% 30.33 in 10.0 mi SSW 13.8 mph 19.6 mph N/A   Clear
9:55 AM 45.5 °F 39.2 °F 20.3 °F 37% 30.33 in 10.0 mi SSW 13.8 mph 24.2 mph N/A   Clear
10:15 AM 46.9 °F - 20.1 °F 35% 30.32 in 10.0 mi SW 17.3 mph 24.2 mph N/A   Clear
10:35 AM 46.0 °F 40.6 °F 19.9 °F 35% 30.32 in 10.0 mi SSW 11.5 mph 26.5 mph N/A   Clear
10:55 AM 47.1 °F - 20.3 °F 35% 30.32 in 10.0 mi SSW 17.3 mph 27.6 mph N/A   Clear
11:15 AM 47.1 °F - 20.7 °F 35% 30.31 in 10.0 mi SSW 12.7 mph 24.2 mph N/A   Clear
11:35 AM 49.1 °F - 19.9 °F 32% 30.30 in 10.0 mi SW 13.8 mph 26.5 mph N/A   Clear
11:55 AM 50.0 °F - 19.6 °F 30% 30.29 in 10.0 mi SW 18.4 mph 27.6 mph N/A   Clear
12:15 PM 50.4 °F - 19.2 °F 29% 30.27 in 10.0 mi WSW 15.0 mph 26.5 mph N/A   Clear
12:35 PM 50.7 °F - 18.7 °F 28% 30.27 in 10.0 mi SSW 17.3 mph 32.2 mph N/A   Clear
12:55 PM 50.2 °F - 19.0 °F 29% 30.27 in 10.0 mi SW 19.6 mph 36.8 mph N/A   Clear
1:35 PM 50.7 °F - 19.8 °F 30% 30.27 in 10.0 mi SW 18.4 mph 32.2 mph N/A   Clear
1:55 PM 51.1 °F - 19.6 °F 29% 30.26 in 10.0 mi SW 15.0 mph 32.2 mph N/A   Clear
2:15 PM 51.4 °F - 20.1 °F 29% 30.26 in 10.0 mi WSW 19.6 mph 28.8 mph N/A   Clear
2:35 PM 51.1 °F - 20.1 °F 30% 30.26 in 10.0 mi SW 18.4 mph 28.8 mph N/A   Clear
2:55 PM 50.2 °F - 20.3 °F 31% 30.27 in 10.0 mi WSW 17.3 mph 32.2 mph N/A   Clear
3:35 PM 49.6 °F - 19.2 °F 30% 30.28 in 10.0 mi SW 18.4 mph 26.5 mph N/A   Clear
4:15 PM 46.6 °F - 19.0 °F 33% 30.30 in 10.0 mi WSW 16.1 mph 23.0 mph N/A   Clear
4:35 PM 45.5 °F 39.6 °F 19.0 °F 35% 30.31 in 10.0 mi SW 12.7 mph 20.7 mph N/A   Clear
4:55 PM 44.6 °F 38.8 °F 19.2 °F 36% 30.32 in 10.0 mi SW 11.5 mph 19.6 mph N/A   Clear
5:15 PM 43.9 °F 38.3 °F 19.4 °F 38% 30.34 in 10.0 mi SW 10.4 mph 17.3 mph N/A   Clear
5:35 PM 43.7 °F 38.1 °F 18.9 °F 37% 30.35 in 10.0 mi WSW 10.4 mph 17.3 mph N/A   Clear
5:55 PM 43.0 °F 37.7 °F 19.0 °F 38% 30.35 in 10.0 mi SW 9.2 mph 16.1 mph N/A   Clear
6:15 PM 43.0 °F 37.7 °F 19.4 °F 39% 30.37 in 10.0 mi SSW 9.2 mph - N/A   Clear
6:35 PM 42.8 °F 38.0 °F 19.4 °F 39% 30.38 in 10.0 mi SW 8.1 mph - N/A   Clear
6:55 PM 42.3 °F 36.3 °F 19.4 °F 40% 30.39 in 10.0 mi West 10.4 mph 16.1 mph N/A   Clear
7:15 PM 42.8 °F 37.5 °F 19.4 °F 39% 30.39 in 10.0 mi WSW 9.2 mph - N/A   Clear
7:35 PM 42.1 °F 36.6 °F 19.4 °F 40% 30.40 in 10.0 mi WSW 9.2 mph - N/A   Clear
7:55 PM 41.5 °F 35.0 °F 19.9 °F 42% 30.40 in 10.0 mi SW 11.5 mph 16.1 mph N/A   Clear
8:35 PM 41.5 °F 34.6 °F 18.9 °F 40% 30.42 in 10.0 mi WSW 12.7 mph 17.3 mph N/A   Clear
8:55 PM 42.1 °F 35.7 °F 18.3 °F 39% 30.42 in 10.0 mi West 11.5 mph 16.1 mph N/A   Clear
9:15 PM 41.0 °F 36.4 °F 18.5 °F 40% 30.43 in 10.0 mi WSW 6.9 mph 17.3 mph N/A   Clear
9:35 PM 39.9 °F 34.5 °F 18.9 °F 43% 30.43 in 10.0 mi West 8.1 mph - N/A   Clear
9:55 PM 39.6 °F 33.5 °F 19.0 °F 44% 30.43 in 10.0 mi West 9.2 mph - N/A   Clear
10:15 PM 39.2 °F 32.5 °F 19.0 °F 44% 30.43 in 10.0 mi West 10.4 mph - N/A   Clear
10:35 PM 39.9 °F 32.5 °F 18.9 °F 43% 30.44 in 10.0 mi West 12.7 mph 18.4 mph N/A   Clear
10:55 PM 41.2 °F 36.0 °F 18.5 °F 40% 30.44 in 10.0 mi WSW 8.1 mph - N/A   Clear
11:15 PM 40.5 °F 34.1 °F 19.0 °F 42% 30.45 in 10.0 mi West 10.4 mph 16.1 mph N/A   Clear
11:35 PM 40.6 °F 33.8 °F 18.9 °F 42% 30.44 in 10.0 mi West 11.5 mph 19.6 mph N/A   Clear